User: anonymous   Login
Location: Unspecified
(0.0000°N, 0.0000°E)
Time: 14:02:09
(UTC+02:00)
Language:

Cosmos 1515 Rocket - Orbit

View from above orbital plane
View from above orbital plane
View from above satellite
View from above satellite

Ground track
Ground track

The orbit data is extracted from the following two-line orbital elements,

1 14552U 83122B   17085.85516853 +.00000116 +00000-0 +11209-4 0  9990
2 14552 082.5254 153.7127 0018749 072.6203 287.7060 14.83389126796973
Epoch (UTC): 26 March 2017 20:31:26
Eccentricity: 0.0018749
inclination: 82.5254°
perigee height: 605 km
apogee height: 632 km
right ascension of ascending node: 153.7127°
argument of perigee: 72.6203°
revolutions per day: 14.83389126
mean anomaly at epoch: 287.7060°
orbit number at epoch: 79697

The dashed part of the orbit path shows where the satellite is in the earth's shadow,  

DLR